• In Hungary
  • List of Countries
  • For 7 days
  • Water Temperature
  • Satellite Maps
  • Weather Map
  • News
  • Weather Widgets
  • user-avatar
    Login

    Hourly Weather Soma Bey

    Today, 19 January, Friday

    Time Temperature Precipitation Wind Pressure Humidity
    00:00 +15°C° 0 mm 6 mps 750 mmHg 35%
    01:00 +15°C° 0 mm 6 mps 750 mmHg 36%
    02:00 +14°C° 0 mm 7 mps 750 mmHg 36%
    03:00 +14°C° 0 mm 7 mps 750 mmHg 37%
    04:00 +13°C° 0 mm 6 mps 750 mmHg 38%
    05:00 +13°C° 0 mm 6 mps 750 mmHg 39%
    06:00 +13°C° 0 mm 6 mps 750 mmHg 41%
    07:00 +13°C° 0 mm 6 mps 751 mmHg 43%
    08:00 +14°C° 0 mm 6 mps 751 mmHg 45%
    09:00 +15°C° 0 mm 7 mps 751 mmHg 41%
    10:00 +16°C° 0 mm 7 mps 751 mmHg 37%
    11:00 +18°C° 0 mm 7 mps 752 mmHg 32%
    12:00 +18°C° 0 mm 7 mps 752 mmHg 30%
    13:00 +20°C° 0 mm 7 mps 752 mmHg 28%
    14:00 +21°C° 0 mm 7 mps 751 mmHg 26%
    15:00 +20°C° 0 mm 7 mps 752 mmHg 28%
    16:00 +20°C° 0 mm 7 mps 752 mmHg 30%
    17:00 +18°C° 0 mm 7 mps 752 mmHg 31%
    18:00 +17°C° 0 mm 6 mps 752 mmHg 36%
    19:00 +16°C° 0 mm 6 mps 753 mmHg 40%
    20:00 +15°C° 0 mm 5 mps 753 mmHg 44%
    21:00 +14°C° 0 mm 5 mps 753 mmHg 46%
    22:00 +14°C° 0 mm 5 mps 754 mmHg 48%
    23:00 +13°C° 0 mm 5 mps 754 mmHg 51%

    Tomorrow, 20 January, Saturday

    Time Temperature Precipitation Wind Pressure Humidity
    00:00 +13°C° 0 mm 5 mps 754 mmHg 53%
    01:00 +12°C° 0 mm 4 mps 754 mmHg 55%
    02:00 +12°C° 0 mm 4 mps 754 mmHg 58%
    03:00 +12°C° 0 mm 4 mps 754 mmHg 61%
    04:00 +11°C° 0 mm 4 mps 754 mmHg 63%
    05:00 +11°C° 0 mm 4 mps 754 mmHg 66%
    06:00 +12°C° 0 mm 4 mps 755 mmHg 63%
    07:00 +13°C° 0 mm 4 mps 755 mmHg 60%
    08:00 +14°C° 0 mm 4 mps 755 mmHg 57%
    09:00 +15°C° 0 mm 4 mps 755 mmHg 52%
    10:00 +17°C° 0 mm 4 mps 755 mmHg 47%
    11:00 +19°C° 0 mm 4 mps 755 mmHg 42%
    12:00 +19°C° 0 mm 4 mps 755 mmHg 41%
    13:00 +20°C° 0 mm 4 mps 754 mmHg 40%
    14:00 +21°C° 0 mm 4 mps 753 mmHg 39%
    15:00 +20°C° 0 mm 3 mps 753 mmHg 43%
    16:00 +19°C° 0 mm 3 mps 753 mmHg 47%
    17:00 +19°C° 0 mm 3 mps 753 mmHg 50%
    18:00 +18°C° 0 mm 2 mps 754 mmHg 56%
    19:00 +16°C° 0 mm 2 mps 754 mmHg 62%
    20:00 +15°C° 0 mm 2 mps 754 mmHg 68%
    21:00 +15°C° 0 mm 2 mps 754 mmHg 69%
    22:00 +14°C° 0 mm 2 mps 754 mmHg 70%
    23:00 +14°C° 0 mm 1 mps 754 mmHg 72%

    Day after tomorrow, 21 January, Sunday

    Time Temperature Precipitation Wind Pressure Humidity
    00:00 +14°C° 0 mm 1 mps 754 mmHg 71%
    01:00 +13°C° 0 mm 1 mps 754 mmHg 69%
    02:00 +13°C° 0 mm 1 mps 753 mmHg 68%
    03:00 +13°C° 0 mm 1 mps 753 mmHg 69%
    04:00 +13°C° 0 mm 1 mps 753 mmHg 71%
    05:00 +12°C° 0 mm 1 mps 752 mmHg 72%
    06:00 +14°C° 0 mm 1 mps 753 mmHg 68%
    07:00 +15°C° 0 mm 1 mps 753 mmHg 63%
    08:00 +18°C° 0 mm 1 mps 753 mmHg 58%
    09:00 +19°C° 0 mm 1 mps 753 mmHg 53%
    10:00 +20°C° 0 mm 2 mps 753 mmHg 47%
    11:00 +23°C° 0 mm 2 mps 753 mmHg 42%
    12:00 +23°C° 0 mm 2 mps 752 mmHg 39%
    13:00 +24°C° 0 mm 2 mps 751 mmHg 37%
    14:00 +25°C° 0 mm 2 mps 750 mmHg 34%
    15:00 +24°C° 0 mm 2 mps 750 mmHg 38%
    16:00 +23°C° 0 mm 2 mps 750 mmHg 42%
    17:00 +23°C° 0 mm 2 mps 750 mmHg 46%
    18:00 +20°C° 0 mm 2 mps 750 mmHg 51%
    19:00 +20°C° 0 mm 1 mps 751 mmHg 57%
    20:00 +19°C° 0 mm 1 mps 751 mmHg 63%
    21:00 +19°C° 0 mm 1 mps 751 mmHg 64%
    22:00 +18°C° 0 mm 1 mps 751 mmHg 64%
    23:00 +18°C° 0 mm 1 mps 751 mmHg 65%

    22 January, Monday

    Time Temperature Precipitation Wind Pressure Humidity
    00:00 +18°C° 0 mm 1 mps 750 mmHg 62%
    01:00 +18°C° 0 mm 1 mps 750 mmHg 59%
    02:00 +18°C° 0 mm 1 mps 749 mmHg 56%
    03:00 +16°C° 0 mm 2 mps 749 mmHg 52%
    04:00 +16°C° 0 mm 2 mps 749 mmHg 48%
    05:00 +16°C° 0 mm 2 mps 749 mmHg 44%
    06:00 +17°C° 0 mm 2 mps 749 mmHg 40%
    07:00 +18°C° 0 mm 2 mps 750 mmHg 36%
    08:00 +19°C° 0 mm 3 mps 750 mmHg 31%
    09:00 +21°C° 0 mm 3 mps 750 mmHg 26%
    10:00 +23°C° 0 mm 4 mps 750 mmHg 22%
    11:00 +25°C° 0 mm 4 mps 750 mmHg 17%
    12:00 +26°C° 0 mm 4 mps 749 mmHg 16%
    13:00 +26°C° 0 mm 5 mps 749 mmHg 16%
    14:00 +27°C° 0 mm 5 mps 748 mmHg 16%
    15:00 +26°C° 0 mm 5 mps 748 mmHg 17%
    16:00 +25°C° 0 mm 5 mps 748 mmHg 19%
    17:00 +23°C° 0 mm 4 mps 749 mmHg 21%
    18:00 +22°C° 0 mm 4 mps 749 mmHg 24%
    19:00 +20°C° 0 mm 4 mps 750 mmHg 27%
    20:00 +19°C° 0 mm 4 mps 750 mmHg 30%
    21:00 +17°C° 0 mm 5 mps 750 mmHg 32%
    22:00 +17°C° 0 mm 5 mps 750 mmHg 34%
    23:00 +16°C° 0 mm 5 mps 750 mmHg 37%

    23 January, Tuesday

    Time Temperature Precipitation Wind Pressure Humidity
    00:00 +16°C° 0 mm 5 mps 750 mmHg 40%
    01:00 +15°C° 0 mm 5 mps 750 mmHg 43%
    02:00 +15°C° 0 mm 5 mps 750 mmHg 47%
    03:00 +14°C° 0 mm 5 mps 750 mmHg 51%
    04:00 +14°C° 0 mm 5 mps 751 mmHg 55%
    05:00 +13°C° 0 mm 4 mps 751 mmHg 59%
    06:00 +14°C° 0 mm 4 mps 751 mmHg 59%
    07:00 +14°C° 0 mm 4 mps 752 mmHg 58%
    08:00 +15°C° 0 mm 4 mps 752 mmHg 58%
    09:00 +17°C° 0 mm 4 mps 752 mmHg 51%
    10:00 +19°C° 0 mm 4 mps 752 mmHg 44%
    11:00 +20°C° 0 mm 5 mps 752 mmHg 37%
    12:00 +21°C° 0 mm 5 mps 752 mmHg 34%
    13:00 +22°C° 0 mm 5 mps 751 mmHg 31%
    14:00 +23°C° 0 mm 5 mps 751 mmHg 28%
    15:00 +22°C° 0 mm 5 mps 751 mmHg 29%
    16:00 +22°C° 0 mm 5 mps 751 mmHg 31%
    17:00 +21°C° 0 mm 5 mps 751 mmHg 32%
    18:00 +20°C° 0 mm 5 mps 751 mmHg 37%
    19:00 +19°C° 0 mm 5 mps 752 mmHg 42%
    20:00 +17°C° 0 mm 5 mps 752 mmHg 47%
    21:00 +16°C° 0 mm 5 mps 752 mmHg 49%
    22:00 +16°C° 0 mm 5 mps 752 mmHg 52%
    23:00 +15°C° 0 mm 5 mps 752 mmHg 54%

    24 January, Wednesday

    Time Temperature Precipitation Wind Pressure Humidity
    00:00 +15°C° 0 mm 5 mps 752 mmHg 57%
    01:00 +14°C° 0 mm 5 mps 752 mmHg 59%
    02:00 +14°C° 0 mm 4 mps 751 mmHg 61%
    03:00 +13°C° 0 mm 4 mps 751 mmHg 64%
    04:00 +13°C° 0 mm 4 mps 751 mmHg 66%
    05:00 +12°C° 0 mm 4 mps 751 mmHg 69%
    06:00 +13°C° 0 mm 4 mps 752 mmHg 65%
    07:00 +14°C° 0 mm 4 mps 752 mmHg 61%
    08:00 +17°C° 0 mm 4 mps 753 mmHg 56%
    09:00 +18°C° 0 mm 4 mps 752 mmHg 52%
    10:00 +19°C° 0 mm 4 mps 752 mmHg 47%
    11:00 +20°C° 0 mm 4 mps 752 mmHg 42%
    12:00 +21°C° 0 mm 4 mps 752 mmHg 39%
    13:00 +22°C° 0 mm 4 mps 751 mmHg 36%
    14:00 +22°C° 0 mm 5 mps 750 mmHg 32%
    15:00 +22°C° 0 mm 5 mps 750 mmHg 34%
    16:00 +21°C° 0 mm 5 mps 750 mmHg 36%
    17:00 +21°C° 0 mm 5 mps 750 mmHg 37%
    18:00 +20°C° 0 mm 4 mps 750 mmHg 41%
    19:00 +19°C° 0 mm 4 mps 751 mmHg 45%
    20:00 +18°C° 0 mm 4 mps 751 mmHg 48%
    21:00 +17°C° 0 mm 4 mps 751 mmHg 50%
    22:00 +17°C° 0 mm 4 mps 751 mmHg 52%
    23:00 +15°C° 0 mm 4 mps 750 mmHg 54%
    Show more